Regional Weather Roundup
Issued by NWS

Home | Current Version | Previous Version | Text Only | Print | Product List | Glossary On
Versions: 1 2 3 4 5 6 7 8 9 10 11 12 13 14 15 16 17 18 19 20 21 22 23 24 25 26 27 28 29 30 31 32 33 34 35 36 37 38 39 40 41 42 43 44 45 46 47 48 49 50
000
ASUS44 KLIX 061811
RWRLA
LOUISIANA WEATHER ROUNDUP
NATIONAL WEATHER SERVICE NEW ORLEANS LA
100 PM CDT MON JUL 06 2015

NOTE: "FAIR" INDICATES FEW OR NO CLOUDS BELOW 12,000 FEET WITH NO
      SIGNIFICANT WEATHER AND/OR OBSTRUCTIONS TO VISIBILITY.
      SKY/WX - SKY CONDITION AND SIGNIFICANT WEATHER.
      TMP - AIR TEMPERATURE.    DP   - DEWPOINT TEMPERATURE.
      RH  - RELATIVE HUMIDITY.  PRES - PRESSURE.
      HX  - HEAT INDEX.         WCI  - WIND CHILL INDEX.

*  THESE STATIONS ARE NOT NWS OR FAA STATIONS AND ARE NOT UNDER
   NWS QUALITY CONTROL.

LAZ040-048-061>063-065-066-069-061900-
SOUTHEAST LOUISIANA

CITY           SKY/WX    TMP DP  RH WIND       PRES   REMARKS
N.O. AUDUBON     N/A     93  79  63 MISG        N/A  HX 110
6HR MIN TEMP:  78; 6HR MAX TEMP:  93;

N.O. INTL ARPT CLOUDY    89  74  60 SE6       30.15F HX  98
6HR MIN TEMP:  77; 6HR MAX TEMP:  90;

N.O. LAKEFRONT PTSUNNY   90  75  61 NW6       30.16F HX 100
6HR MIN TEMP:  81; 6HR MAX TEMP:  91; 6HR PCP: TRACE;

N.O. DOWNTOWN* FAIR      91  73  55 SW3       30.16F HX 100
6HR MIN TEMP:  81; 6HR MAX TEMP:  91;

RESERVE*       MOCLDY    91  76  60 S8        30.14F HX 102
6HR MIN TEMP:  76; 6HR MAX TEMP:  91;

SLIDELL        PTSUNNY   87  76  69 S5        30.16F HX  97
6HR MIN TEMP:  72; 6HR MAX TEMP:  88;

BATON ROUGE    PTSUNNY   87  76  69 SW7       30.14F HX  97
6HR MIN TEMP:  71; 6HR MAX TEMP:  89;

BOOTHVILLE     MOSUNNY   88  76  67 SW6       30.17F HX  99
6HR MIN TEMP:  80; 6HR MAX TEMP:  88;

BELLE CHASSE   CLOUDY    87  74  64 VRB7      30.15F HX  95
6HR MIN TEMP:  74; 6HR MAX TEMP:  88;

BOGALUSA*        N/A     89  74  60 SW5       30.18F HX  97
6HR MIN TEMP:  71; 6HR MAX TEMP:  89;

GALLIANO*      MOCLDY    91  75  60 S8        30.15F HX 102
6HR MIN TEMP:  74; 6HR MAX TEMP:  91;

NEW ROADS*     MOCLDY   N/A N/A N/A S5        30.14F
GONZALES*      FAIR      89  75  64 S7        30.13F HX  99
6HR MIN TEMP:  73; 6HR MAX TEMP:  89;

HAMMOND*       MOSUNNY   90  73  58 S8        30.17F HX  98
HOUMA*         CLOUDY    88  79  74 S12       30.15F HX 102
PORT FOURCHON* PTCLDY    88  77  70 S9        30.16F HX 100

$$

LAZ041-044-053-054-061900-
SOUTHWEST LOUISIANA

CITY           SKY/WX    TMP DP  RH WIND       PRES   REMARKS
LAKE CHARLES   MOSUNNY   89  72  56 S13G22    30.12F HX  96
6HR MIN TEMP:  79; 6HR MAX TEMP:  90;

LAFAYETTE      MOSUNNY   91  71  51 S12       30.12F HX  97
6HR MIN TEMP:  76; 6HR MAX TEMP:  91;

PATTERSON      MOSUNNY   90  73  58 SW10      30.15F HX  98
6HR MIN TEMP:  75; 6HR MAX TEMP:  90;

SALT POINT       N/A     89  77  67 VRB6      30.13F HX 101
6HR MIN TEMP:  82; 6HR MAX TEMP:  89;

NEW IBERIA     NOT AVBL
CHENAULT AIRPK MOSUNNY   91  72  52 SE18      30.12F HX  98

$$

LAZ027-028-061900-
CENTRAL LOUISIANA

CITY           SKY/WX    TMP DP  RH WIND       PRES   REMARKS
FORT POLK      MOSUNNY   91  75  59 S14       30.10F HX 102
6HR MIN TEMP:  74; 6HR MAX TEMP:  90;

ALEXANDRIA INT MOSUNNY   89  76  65 SW12      30.09F HX 100
6HR MIN TEMP:  73; 6HR MAX TEMP:  89;

ALEXANDRIA     MOSUNNY   91  74  57 W9        30.12F HX 100
6HR MIN TEMP:  73; 6HR MAX TEMP:  92;


$$

LAZ001-002-061900-
NORTHWEST LOUISIANA

CITY           SKY/WX    TMP DP  RH WIND       PRES   REMARKS
SHREVEPORT     PTSUNNY   90  73  57 S14G21    30.08S HX  98
6HR MIN TEMP:  75; 6HR MAX TEMP:  91;

BARKSDALE AFB  MOSUNNY   90  74  59 S8        30.08S HX  98
6HR MIN TEMP:  73; 6HR MAX TEMP:  90;

DTN SHREVEPORT MOSUNNY   89  71  55 S13       30.08F HX  95
6HR MIN TEMP:  75; 6HR MAX TEMP:  89;


$$

LAZ014-016-061900-
NORTHEAST LOUISIANA

CITY           SKY/WX    TMP DP  RH WIND       PRES   REMARKS
MONROE         PTSUNNY   89  77  67 SW10      30.11F HX 101
6HR MIN TEMP:  70; 6HR MAX TEMP:  89;

TALLULAH       PTSUNNY   87  76  69 VRB3      30.13F HX  97
6HR MIN TEMP:  71; 6HR MAX TEMP:  87;


$$



USA.gov is the U.S. government's official web portal to all federal, state and local government web resources and services.